SL-16 DEB, 22619

Orbit data source: Space-Track

SL-16 DEB, 22619 is space debris in LEO originally from a launch on Fri, 26 Mar 1993 UTC launched from the Tyuratam Missile And Space Complex (TTMTR). Debris objects in space refer to the collection of defunct objects orbiting the Earth. Examples of debris include non-operational satellites, rocket bodies, and fragments generated from explosions, collisions, or faulty payload assembly.

Loading next visibility...
Identifier
22619, 1993-016AD
Orbit
LEO
Last TLE update
12 hours ago
Origin
Manufacturer
Unknown
Mission
Spacecraft
Bus & Motor
Unknown
Mass
Unknown
Launch date (UTC)
1993-03-26 (32 years ago)
Launch vehicle
Unknown
Launch site
Tyuratam Missile And Space Complex (TTMTR)
Object type
Payload
Rocket body
Debris
Shape & HBR
Unknown
Radar Cross Section
Medium (>0.1 m² and <1 m²)

Expand to show TLE details & history

TLE from 12 hours ago
0 SL-16 DEB
1 22619U 93016AD  25181.86470124 -.00000013  00000-0  29053-4 0  9996
2 22619  70.9986 210.2184 0188102 282.8268 252.4677 13.73840351616848
Epoch: 2025-06-30T20:45Z
TLE epoch observation values (Epoch: 2025-06-30T20:45:10.187Z)
Latitude
6.31054°
Longitude
157.58641°
Altitude
1,031.655 km
Speed
7.315 km/s
True Right ascension
01h 52m 11s
True Declination
6° 16' 28"
Sunlit
Object was in daylight at epoch
Visualization orbit readout
Latitude
-44.29515°
Longitude
178.26203°
Altitude
920.63 km
Speed
7.432 km/s
Apparent Right ascension
05h 57m 06s
Apparent Declination
-50° 38' 41"
Sunlit
Object is in daylight
Visualization observer readout
Local Sidereal Time
20:53:00
Azimuth
124.289° SE
Elevation
-57.796°
Doppler factor
1
Orbital elements
Apogee altitude
1,122.259 km
Perigee altitude
845.301 km
Semi-major axis
7,361.917 km
Eccentricity
0.01881
Inclination
70.9986°
RAAN
210.2184°
Arg. of periapsis
282.8268°
True anomaly
Unknown
Mean anomaly
252.4677°
Eccentric anomaly
Unknown
Mean motion
3.43603 °/min
Orbital period
104.77 mins
BSTAR
0.000029053
Loading maneuver chart data...
Loading SW <> Apogee altitude chart data...
Loading historical data...
Loading historical data...
Loading historical data...
Loading historical data...
Loading historical data...
Loading historical data...
Loading historical data...

SL-16 DEB Visibility forecast

Observer location: undefined°, undefined°

Span
Click to sort rows by Start time (UTC) header in descending order
Start Az.
Max El. time (UTC)
Max El. Az.
Max El.
End time (UTC)
End Az.
12 mins2025-07-01 12:10:45.504Z351.884° N2025-07-01 12:16:45.504Z60.313° ENE33.305°2025-07-01 12:22:45.504Z126.243° SE
11 mins2025-07-01 13:58:45.504Z316.337° NNW2025-07-01 14:03:45.504Z258.861° W31.501°2025-07-01 14:09:45.504Z193.134° SSW
7 mins2025-07-02 01:44:45.504Z123.342° SE2025-07-02 01:46:45.504Z101.629° ESE18.382°2025-07-02 01:51:45.504Z54.06° ENE
11 mins2025-07-02 03:28:45.504Z214.379° SW2025-07-02 03:33:45.504Z302.392° NW43.164°2025-07-02 03:39:45.504Z17.932° NNE
5 mins2025-07-02 05:20:45.504Z301.979° NW2025-07-02 05:22:45.504Z321.305° NNW14.208°2025-07-02 05:25:45.504Z347.577° N
|